Weather History for Milwaukee Timmerman, WI

Change the Weather History Date:

Thursday, January 16, 2014

  Actual Average Record
Temperature  
Mean Temperature 24 °F -  
Max Temperature 32 °F 27 °F 53 °F (1949)
Min Temperature 17 °F 11 °F -20 °F (1977)
Degree Days  
Heating Degree Days 40    
Moisture  
Dew Point 17 °F    
Average Humidity 75    
Maximum Humidity 87    
Minimum Humidity 59    
Precipitation  
Precipitation 0.00 in - - ()
Sea Level Pressure  
Sea Level Pressure 29.57 in    
Wind  
Wind Speed 13 mph (SW)    
Max Wind Speed 21 mph    
Max Gust Speed 28 mph    
Visibility 8 miles    
Events Snow    
Averages and records for this station are not official NWS values.
T = Trace of Precipitation, MM = Missing Value Source: NWS Daily Summary

Daily Weather History Graph

Daily Weather History Graph

Search for Another Location

Airport:

Trip Planner

Search our weather history database for the weather conditions in past years. The results will help you decide how hot, cold, wet, or windy it might be!

Date:

Astronomy

Jan. 16, 2014 Rise Set
Actual Time 7:20 AM CST 4:43 PM CST
Civil Twilight 6:48 AM CST 5:15 PM CST
Nautical Twilight 6:13 AM CST 5:50 PM CST
Astronomical Twilight 5:39 AM CST 6:24 PM CST
Moon 5:38 PM CST (1/16) 7:11 AM CST (1/16)
Length of Visible Light 10h 26m
Length of Day
9h 23m
Full, 100% of the Moon is Illuminated
Jan 16
Full
Jan 23
Last Quarter
Jan 30
New
Feb 6
First Quarter
Feb 14
Full

Hourly Weather History & Observations

Time (CST) Temp. Windchill Dew Point Humidity Pressure Visibility Wind Dir Wind Speed Gust Speed Precip Events Conditions
12:15 AM 17.6 °F 3.7 °F 10.4 °F 73% 29.71 in 7.0 mi South 13.8 mph 20.7 mph N/A Snow Light Snow
12:35 AM 19.4 °F 5.5 °F 12.2 °F 74% 29.69 in 7.0 mi South 15.0 mph - N/A Snow Light Snow
12:55 AM 19.4 °F 6.0 °F 12.2 °F 74% 29.69 in 10.0 mi SSW 13.8 mph - N/A   Overcast
1:15 AM 19.4 °F 6.6 °F 12.2 °F 74% 29.67 in 7.0 mi South 12.7 mph 19.6 mph N/A   Overcast
1:35 AM 19.4 °F 6.6 °F 14.0 °F 80% 29.67 in 10.0 mi SSW 12.7 mph 16.1 mph N/A   Overcast
1:55 AM 21.2 °F 8.9 °F 14.0 °F 74% 29.65 in 10.0 mi South 12.7 mph 18.4 mph N/A   Overcast
2:15 AM 21.2 °F 7.8 °F 14.0 °F 74% 29.65 in 7.0 mi SSW 15.0 mph 23.0 mph N/A Snow Light Snow
2:35 AM 21.2 °F 8.9 °F 14.0 °F 74% 29.63 in 10.0 mi SSW 12.7 mph 19.6 mph N/A   Overcast
2:55 AM 21.2 °F 9.5 °F 14.0 °F 74% 29.63 in 10.0 mi SSW 11.5 mph - N/A   Overcast
3:15 AM 21.2 °F 6.8 °F 14.0 °F 74% 29.61 in 5.0 mi SSW 17.3 mph 21.9 mph N/A Snow Light Snow
3:35 AM 23.0 °F 9.6 °F 14.0 °F 68% 29.61 in 7.0 mi SSW 16.1 mph 23.0 mph N/A Snow Light Snow
3:55 AM 23.0 °F 10.6 °F 14.0 °F 68% 29.59 in 5.0 mi SSW 13.8 mph 20.7 mph N/A Snow Light Snow
4:15 AM 23.0 °F 10.1 °F 15.8 °F 74% 29.57 in 5.0 mi SSW 15.0 mph 18.4 mph N/A Snow Light Snow
4:35 AM 23.0 °F 10.6 °F 15.8 °F 74% 29.56 in 7.0 mi SSW 13.8 mph 20.7 mph N/A Snow Light Snow
4:55 AM 23.0 °F 11.1 °F 15.8 °F 74% 29.55 in 10.0 mi SSW 12.7 mph - N/A   Overcast
5:15 AM 23.0 °F 12.4 °F 15.8 °F 74% 29.54 in 10.0 mi SSW 10.4 mph - N/A   Overcast
5:35 AM 23.0 °F 11.7 °F 15.8 °F 74% 29.54 in 10.0 mi SSW 11.5 mph 18.4 mph N/A   Scattered Clouds
5:55 AM 23.0 °F 12.4 °F 15.8 °F 74% 29.53 in 10.0 mi SSW 10.4 mph 16.1 mph N/A   Scattered Clouds
6:15 AM 23.0 °F 13.1 °F 17.6 °F 80% 29.53 in 10.0 mi SSW 9.2 mph - N/A   Mostly Cloudy
6:35 AM 23.0 °F 12.4 °F 17.6 °F 80% 29.52 in 10.0 mi SSW 10.4 mph - N/A   Mostly Cloudy
6:45 AM 23.0 °F 11.7 °F 15.8 °F 74% 29.52 in 10.0 mi SSW 11.5 mph 17.3 mph N/A   Scattered Clouds
7:45 AM 24.8 °F 14.0 °F 17.6 °F 74% 29.51 in 10.0 mi SSW 11.5 mph 17.3 mph N/A   Scattered Clouds
8:45 AM 26.6 °F 16.2 °F 19.4 °F 74% 29.50 in 10.0 mi SSW 11.5 mph 18.4 mph N/A   Scattered Clouds
9:45 AM 28.4 °F 17.5 °F 21.2 °F 74% 29.49 in 10.0 mi SSW 13.8 mph 19.6 mph N/A   Overcast
10:45 AM 28.4 °F 18.5 °F 24.8 °F 86% 29.48 in 2.0 mi SSW 11.5 mph - N/A Snow Light Snow
11:45 AM 28.4 °F 18.0 °F 24.8 °F 86% 29.46 in 1.0 mi SSW 12.7 mph 17.3 mph N/A Snow Light Snow
12:45 PM 30.2 °F 20.8 °F 26.6 °F 86% 29.43 in 2.5 mi SW 11.5 mph - N/A Snow Light Snow
1:05 PM 30.2 °F 20.2 °F 24.8 °F 80% 29.43 in 3.0 mi SSW 12.7 mph - N/A Snow Light Snow
1:45 PM 30.2 °F 19.8 °F 26.6 °F 86% 29.43 in 4.0 mi SSW 13.8 mph - N/A Snow Light Snow
2:45 PM 30.2 °F 19.8 °F 26.6 °F 86% 29.42 in 5.0 mi SSW 13.8 mph - N/A   Haze
3:45 PM 32.0 °F 25.6 °F 28.4 °F 87% 29.45 in 2.0 mi SW 6.9 mph - N/A Snow Light Snow
4:45 PM 32.0 °F 27.5 °F 28.4 °F 87% 29.45 in 10.0 mi SW 4.6 mph - N/A   Overcast
5:45 PM 32.0 °F 27.5 °F 28.4 °F 87% 29.49 in 3.0 mi SW 4.6 mph - N/A Snow Light Snow
8:15 PM 26.6 °F 12.7 °F 17.6 °F 69% 29.56 in 10.0 mi WNW 20.7 mph 24.2 mph N/A   Overcast
8:35 PM 26.6 °F 13.8 °F 14.0 °F 59% 29.58 in 10.0 mi WNW 17.3 mph 24.2 mph N/A   Overcast
8:55 PM 26.6 °F 14.7 °F 14.0 °F 59% 29.58 in 10.0 mi WNW 15.0 mph 23.0 mph N/A   Overcast
9:15 PM 24.8 °F 11.5 °F 15.8 °F 69% 29.59 in 10.0 mi West 17.3 mph 25.3 mph N/A   Overcast
9:35 PM 23.0 °F 9.2 °F 15.8 °F 74% 29.60 in 10.0 mi WNW 17.3 mph 21.9 mph N/A   Overcast
9:55 PM 23.0 °F 10.6 °F 14.0 °F 68% 29.61 in 10.0 mi WNW 13.8 mph - N/A   Overcast
10:15 PM 23.0 °F 8.7 °F 14.0 °F 68% 29.62 in 10.0 mi West 18.4 mph 26.5 mph N/A   Overcast
10:35 PM 21.2 °F 7.8 °F 14.0 °F 74% 29.62 in 10.0 mi WNW 15.0 mph 23.0 mph N/A   Overcast
10:55 PM 19.4 °F 5.5 °F 12.2 °F 74% 29.63 in 7.0 mi WNW 15.0 mph 27.6 mph N/A   Overcast
11:15 PM 19.4 °F 6.6 °F 12.2 °F 74% 29.63 in 10.0 mi WNW 12.7 mph 21.9 mph N/A   Overcast
11:35 PM 17.6 °F 2.7 °F 10.4 °F 73% 29.64 in 10.0 mi WNW 16.1 mph 21.9 mph N/A   Overcast
11:55 PM 17.6 °F 3.7 °F 10.4 °F 73% 29.65 in 10.0 mi WNW 13.8 mph 19.6 mph N/A   Overcast